Home   Weather   Charlotte Amalie   Past weeks

Flag for US Virgin Islands Past Weather in Charlotte Amalie, US Virgin Islands — Yesterday and Last 2 Weeks

Now
88 °F

Passing clouds.


Feels Like: 97 °F
Forecast: 78 / 84 °F
Wind: 13 mph from Southeast

Location: Cyril E. King International Airport

Current Time: May 25, 2017 at 10:22:35 am

Latest Report: May 25, 2017 at 9:53 am


Visibility: 10 mi

Pressure: 30.10 "Hg

Humidity: 63%

Dew Point: 74 °F

Location of Charlotte AmalieLocation

Past Weather in Charlotte Amalie — Graph

°F

Charlotte Amalie Temperature Yesterday

Maximum temperature yesterday: 89 °F (at 12:53 pm)
Minimum temperature yesterday: 82 °F (at 1:33 am)
Average temperature yesterday: 85 °F

High & Low Weather Summary for the Past Weeks

 TemperatureHumidityPressure
High89 °F (May 17, 10:53 am)100% (May 11, 5:33 am)30.09 "Hg (May 11, 5:33 am)
Low73 °F (May 12, 2:53 am)53% (May 19, 9:53 am)29.89 "Hg (May 11, 4:53 pm)
Average82 °F80%30.00 "Hg
* Reported May 10 8:53 am — May 25 8:53 am, Charlotte Amalie. Weather by CustomWeather, © 2017

Note: Actual official high and low records may vary slightly from our data, if they occured in-between our weather recording intervals... More about our weather records

Advertising

Charlotte Amalie Weather History for the Previous 24 Hours

Scroll right to see more
 ConditionsComfort  
Time TempWeatherWind HumidityBarometerVisibility
8:53 am
Thu, May 25
89 °FPassing clouds.14 mph59%30.09 "Hg10 mi
7:53 am86 °FPassing clouds.12 mph65%30.09 "Hg10 mi
7:11 am84 °FPassing clouds.10 mph72%30.08 "Hg10 mi
6:53 am83 °FOvercast.9 mph74%30.08 "Hg10 mi
6:17 am82 °FOvercast.7 mph77%30.07 "Hg10 mi
5:53 am81 °FOvercast.6 mph79%30.06 "Hg10 mi
4:53 am81 °FOvercast.7 mph79%30.06 "Hg10 mi
3:53 am81 °FOvercast.6 mph79%30.05 "Hg10 mi
2:53 am82 °FMostly cloudy.7 mph79%30.06 "Hg10 mi
1:53 am82 °FOvercast.5 mph79%30.06 "Hg10 mi
12:53 am83 °FOvercast.7 mph77%30.07 "Hg10 mi
11:53 pm
Wed, May 24
83 °FOvercast.8 mph77%30.08 "Hg10 mi
10:53 pm83 °FOvercast.9 mph77%30.08 "Hg10 mi
9:53 pm83 °FOvercast.5 mph77%30.07 "Hg10 mi
9:00 pm84 °FOvercast.9 mph74%30.05 "Hg10 mi
7:53 pm85 °FPassing clouds.12 mph75%30.03 "Hg10 mi
6:53 pm85 °FPassing clouds.13 mph72%30.02 "Hg10 mi
5:53 pm86 °FPassing clouds.14 mph72%30.02 "Hg10 mi
4:53 pm88 °FPassing clouds.16 mph65%30.01 "Hg10 mi
3:53 pm88 °FPassing clouds.14 mph70%30.01 "Hg10 mi
2:53 pm89 °FPassing clouds.16 mph65%30.03 "Hg10 mi
1:53 pm89 °FPassing clouds.15 mph65%30.05 "Hg10 mi
12:53 pm89 °FPassing clouds.18 mph63%30.06 "Hg10 mi
11:53 am88 °FPassing clouds.15 mph65%30.08 "Hg10 mi
10:53 am87 °FPassing clouds.15 mph67%30.08 "Hg10 mi
Weather by CustomWeather, © 2017

See weather overviewHow to use our weather pages